We konden geen weer-waarchuwingen ophalen. Ga rechtstreeks naar de Meteoalarm site : www.meteoalarm.eu en controleer daar .



Onweer radar Meer informatie blitzortung!


Regen radar Meer informatie rain snow radar


Bezoek onze andere website:

Template documentation
and downloads

And another site



15 daagse weersverwachting Borlänge (SE)

  • Overzicht
  • Per uur
  • 15 dagen
  • Extra
  • Vergelijk
  • Kaarten
  • Dagkaart
  • Meer »
  • Info
  • Statistieken
  • Directe link
    Temp 6h Neerslag Wind  
 05:18     20:48    Daglengte: 15:30 Vandaag
14:00
23°
 
3
20:00
22°
 
2
 05:21     20:45    Daglengte: 15:24 Morgen
02:00
16°
 
2
08:00
15°
 
3
14:00
21°
 
2
20:00
19°
 
3
 05:23     20:42    Daglengte: 15:19 Vrijdag 19 Aug
02:00
17°
 
2
08:00
18°
 
2
14:00
25°
1.2 mm
3
warningclass
20:00
21°
4.7 mm
1
 05:26     20:39    Daglengte: 15:13 Zaterdag 20 Aug
02:00
19°
39.3 mm
1
warningclass
08:00
19°
25.8 mm
1
Locatie info
Region: Dalarnas län
Latitude: 60.4838°N
Longitude: 15.4344°E
124 masl
Postcode: 784 34
Temp/Neerslag /Baro Onweer/Dauwpunt
    Temp Baro 1h Neerslag Dauwpunt Wind UV Bewolking  
 05:18     20:48    Daglengte: 15:30 Vandaag
14:00
23°
1009.9 hPa
13%
14.3°
3
Windvlaag: 6.7 m/s
75%
15:00
23°
1009.9 hPa
21%
13.0°
4
Windvlaag: 7 m/s
7%
16:00
24°
1009.7 hPa
18%
12.8°
3
Windvlaag: 6.5 m/s
4%
17:00
24°
1009.8 hPa
16%
13.0°
3
Windvlaag: 6.4 m/s
6%
18:00
23°
1010.1 hPa   13.7°
3
Windvlaag: 5.5 m/s
12%
19:00
23°
1010.4 hPa   13.8°
3
Windvlaag: 5.2 m/s
15%
20:00
22°
1011.0 hPa   14.8°
2
Windvlaag: 6.2 m/s
31%
21:00
20°
1011.8 hPa   15.3°
2
Windvlaag: 6.5 m/s
45%
22:00
19°
1012.5 hPa   15.9°
1
Windvlaag: 5.6 m/s
52%
23:00
17°
1013.0 hPa   16.1°
1
Windvlaag: 4.5 m/s
52%
 05:21     20:45    Daglengte: 15:24 Morgen
00:00
17°
1013.8 hPa   15.3°
2
Windvlaag: 2.8 m/s
60%
01:00
16°
1014.3 hPa
20%
15.7°
2
Windvlaag: 2.9 m/s
69%
02:00
16°
1014.9 hPa
21%
15.2°
2
Windvlaag: 2.7 m/s
85%
03:00
16°
1015.1 hPa
21%
15.3°
2
Windvlaag: 2.2 m/s
80%
04:00
15°
1015.5 hPa   14.5°
2
Windvlaag: -1.2 m/s
83%
05:00
15°
1015.8 hPa
20%
14.5°
2
Windvlaag: -1 m/s
85%
06:00
15°
1016.2 hPa   14.4°
2
Windvlaag: -0.2 m/s
83%
07:00
15°
1016.5 hPa   13.6°
2
Windvlaag: 1.8 m/s
72%
08:00
15°
1017.0 hPa   13.1°
3
Windvlaag: 2.9 m/s
69%
09:00
16°
1017.5 hPa   13.1°
3
Windvlaag: 2.5 m/s
84%
10:00
16°
1017.6 hPa
11%
13.4°
3
Windvlaag: 2.8 m/s
83%
11:00
17°
1017.7 hPa
22%
13.8°
2
Windvlaag: 2.3 m/s
63%
12:00
18°
1017.6 hPa   14.0°
3
Windvlaag: 2.2 m/s
72%
13:00
20°
1017.5 hPa   14.5°
2
Windvlaag: 2.5 m/s
77%
14:00
21°
1017.0 hPa   14.6°
2
Windvlaag: 3.3 m/s
65%
15:00
22°
1016.5 hPa   14.3°
2
Windvlaag: 3.3 m/s
60%
16:00
22°
1016.3 hPa
22%
14.3°
3
Windvlaag: 3.1 m/s
78%
17:00
22°
1016.1 hPa   15.3°
3
Windvlaag: 3.3 m/s
74%
18:00
22°
1015.9 hPa   15.6°
3
Windvlaag: 2 m/s
36%
19:00
21°
1015.8 hPa   15.8°
3
Windvlaag: 1.7 m/s
41%
20:00
19°
1015.8 hPa
23%
15.9°
3
Windvlaag: 1.3 m/s
77%
21:00
18°
1016.1 hPa   15.9°
3
Windvlaag: 2.2 m/s
80%
22:00
18°
1015.9 hPa
15%
16.1°
3
Windvlaag: 2.6 m/s
60%
23:00
17°
1015.7 hPa
18%
16.2°
3
Windvlaag: 2.1 m/s
30%
 05:23     20:42    Daglengte: 15:19 Vrijdag 19 Aug
00:00
17°
1015.6 hPa
17%
16.2°
2
Windvlaag: 2.1 m/s
36%
01:00
17°
1015.3 hPa
31%
16.2°
2
Windvlaag: 2.3 m/s
54%
02:00
17°
1015.0 hPa
18%
16.3°
2
Windvlaag: 2.2 m/s
72%
03:00
17°
1014.7 hPa
14%
16.6°
2
Windvlaag: 1.4 m/s
86%
04:00
17°
1014.4 hPa
12%
16.6°
2
Windvlaag: 1.1 m/s
85%
05:00
17°
1014.2 hPa
12%
16.7°
2
Windvlaag: 1 m/s
86%
06:00
17°
1014.2 hPa
14%
16.8°
2
Windvlaag: 1.1 m/s
86%
07:00
17°
1014.4 hPa
13%
17.1°
2
Windvlaag: 1.5 m/s
74%
08:00
18°
1014.5 hPa
57%
17.4°
2
Windvlaag: 1.8 m/s
86%
09:00
19°
1014.3 hPa
21%
17.5°
2
Windvlaag: 2.6 m/s
86%
10:00
21°
1014.0 hPa
14%
17.5°
2
Windvlaag: 3.5 m/s
64%
11:00
22°
1013.4 hPa
23%
17.2°
3
Windvlaag: 2.7 m/s
72%
12:00
24°
1013.0 hPa
37%
16.6°
3
Windvlaag: 3.9 m/s
58%
13:00
25°
1012.6 hPa 0.3 mm
94%
18.0°
3
Windvlaag: 7.3 m/s
80% warningclass
14:00
25°
1012.4 hPa 0.9 mm
92%
18.7°
3
Windvlaag: 6.2 m/s
59% warningclass
15:00
25°
1012.2 hPa 0.7 mm
99%
20.2°
3
Windvlaag: 6.6 m/s
67% warningclass
16:00
25°
1012.0 hPa 1.0 mm
99%
21.9°
3
Windvlaag: 7.5 m/s
82% warningclass
17:00
25°
1011.8 hPa
98%
20.4°
3
Windvlaag: 7.1 m/s
95%
18:00
24°
1011.7 hPa
21%
21.5°
2
Windvlaag: 4.2 m/s
89%
19:00
23°
1011.5 hPa
31%
21.4°
2
Windvlaag: -1.6 m/s
97%
20:00
21°
1011.8 hPa 2.9 mm
94%
21.1°
1
Windvlaag: -1.9 m/s
99%
21:00
20°
1012.1 hPa 6.8 mm
94%
19.8°
1
Windvlaag: 3.1 m/s
98%
22:00
20°
1011.9 hPa 9.4 mm
99%
19.3°
1
Windvlaag: 2.8 m/s
98%
23:00
20°
1011.9 hPa 8.3 mm
99%
19.0°
1
Windvlaag: 4.8 m/s
98%
 05:26     20:39    Daglengte: 15:13 Zaterdag 20 Aug
00:00
19°
1011.6 hPa 7.2 mm
32%
18.7°
1
Windvlaag: 4.7 m/s
93%
01:00
19°
1011.4 hPa 3.9 mm
100%
18.8°
1
Windvlaag: 6.8 m/s
100%
02:00
19°
1011.1 hPa 3.7 mm
100%
19.0°
1
Windvlaag: 3.3 m/s
100% warningclass
03:00
19°
1010.6 hPa 3.7 mm
100%
18.7°
1
Windvlaag: 1 m/s
100%
04:00
18°
1010.3 hPa 3.1 mm
100%
18.4°
1
Windvlaag: -3.7 m/s
100%
05:00
18°
1010.1 hPa 3.7 mm
100%
18.1°
1
Windvlaag: -4.1 m/s
90%
06:00
18°
1009.6 hPa 5.2 mm
100%
18.2°
2
Windvlaag: 2.4 m/s
70% warningclass
07:00
18°
1009.3 hPa 5.3 mm
100%
18.1°
1
Windvlaag: 2.9 m/s
100%
08:00
19°
1009.0 hPa 4.8 mm
98%
18.2°
1
Windvlaag: 2.8 m/s
100%
09:00
19°
1008.6 hPa 5.6 mm
100%
18.3°
2
Windvlaag: 2.4 m/s
100%
10:00
19°
1008.1 hPa 6.4 mm
100%
17.9°
2
Windvlaag: 3.3 m/s
100% warningclass
11:00
19°
1007.3 hPa 6.5 mm
100%
17.5°
3
Windvlaag: 2.7 m/s
100%
12:00
19°
1006.4 hPa 5.1 mm
100%
17.0°
3
Windvlaag: 2.3 m/s
100%
13:00
20°
1006.0 hPa 6.4 mm
100%
16.0°
3
Windvlaag: 2.7 m/s
100%
Temp/Neerslag /Baro Onweer/Dauwpunt
    Temp Baro Neerslag Dauwpunt Wind Bewolking  
 05:18     20:48    Daglengte: 15:30 Vandaag
14:00
23°
1009.9 hPa   14.3°
3
75%
17:00
24°
1009.8 hPa   13.0°
3
6%
20:00
22°
1011.0 hPa   14.8°
2
31%
23:00
17°
1013.0 hPa   16.1°
1
52%
 05:21     20:45    Daglengte: 15:24 Morgen
02:00
16°
1014.9 hPa   15.2°
2
85%
05:00
15°
1015.8 hPa   14.5°
2
85%
08:00
15°
1017.0 hPa   13.1°
3
69%
11:00
17°
1017.7 hPa   13.8°
2
63%
14:00
21°
1017.0 hPa   14.6°
2
65%
17:00
22°
1016.1 hPa   15.3°
3
74%
20:00
19°
1015.8 hPa   15.9°
3
77%
23:00
17°
1015.7 hPa   16.2°
3
30%
 05:23     20:42    Daglengte: 15:19 Vrijdag 19 Aug
02:00
17°
1015.0 hPa   16.3°
2
72%
05:00
17°
1014.2 hPa   16.7°
2
86%
08:00
18°
1014.5 hPa   17.4°
2
86%
11:00
22°
1013.4 hPa   17.2°
3
72%
14:00
25°
1012.4 hPa 1.2 mm 18.7°
3
59% warningclass
17:00
25°
1011.8 hPa 1.7 mm 20.4°
3
95% warningclass
20:00
21°
1011.8 hPa 2.9 mm 21.1°
1
99%
23:00
20°
1011.9 hPa 24.5 mm 19.0°
1
98%
 05:26     20:39    Daglengte: 15:13 Zaterdag 20 Aug
02:00
19°
1011.1 hPa 14.8 mm 19.0°
1
100% warningclass
05:00
18°
1010.1 hPa 10.6 mm 18.1°
1
90%
08:00
19°
1009.0 hPa 15.2 mm 18.2°
1
100%
11:00
19°
1007.3 hPa 18.5 mm 17.5°
3
100%
14:00
20°
1005.8 hPa 16.7 mm 15.3°
3
98%
17:00
18°
1009.7 hPa 19.5 mm 17.6°
0
1%
20:00
17°
1010.0 hPa 22.5 mm 16.4°
1
1%
23:00
15°
1009.7 hPa 22.5 mm 13.6°
2
1%
 05:28     20:36    Daglengte: 15:08 Zondag 21 Aug
02:00
14°
1009.8 hPa 22.5 mm 13.5°
1
1%
05:00
12°
1009.2 hPa 22.5 mm 10.9°
2
1%
08:00
14°
1009.4 hPa 22.5 mm 12.1°
2
1%
11:00
20°
1008.5 hPa 22.5 mm 10.4°
4
0%
14:00
22°
1008.4 hPa 22.5 mm 10.0°
5
0%
17:00
21°
1008.5 hPa 22.5 mm 10.0°
4
0%
20:00
18°
1009.0 hPa 22.5 mm 10.7°
4
0%
23:00
13°
1009.3 hPa 22.5 mm 10.2°
2
0%
 05:31     20:33    Daglengte: 15:02 Maandag 22 Aug
02:00
13°
1009.3 hPa 22.5 mm 9.6°
2
1%
05:00
13°
1009.1 hPa 22.5 mm 10.0°
2
1%
08:00
15°
1009.4 hPa 22.5 mm 10.0°
3
1%
11:00
17°
1009.0 hPa 23.3 mm 11.2°
5
0%
14:00
20°
1008.7 hPa 23.5 mm 5.8°
5
0%
17:00
17°
1009.9 hPa 23.6 mm 8.8°
5
1%
20:00
15°
1011.1 hPa 23.8 mm 8.4°
4
1%
23:00
12°
1013.2 hPa 23.8 mm 8.6°
3
0%
 05:33     20:30    Daglengte: 14:57 Dinsdag 23 Aug
02:00
10°
1015.6 hPa 23.8 mm 8.4°
2
0%
05:00
1018.3 hPa 23.8 mm 8.4°
1
0%
08:00
13°
1021.0 hPa 23.8 mm 8.9°
1
0%
11:00
19°
1022.4 hPa 23.8 mm 8.5°
1
0%
14:00
22°
1023.0 hPa 23.8 mm 6.6°
2
0%
17:00
22°
1023.4 hPa 23.8 mm 5.3°
3
0%
20:00
16°
1024.8 hPa 23.8 mm 8.6°
1
1%
23:00
12°
1026.5 hPa 23.8 mm 8.4°
0
1%
 05:35     20:27    Daglengte: 14:52 Woensdag 24 Aug
02:00
10°
1027.5 hPa 23.8 mm 7.7°
1
1%
05:00
1027.5 hPa 23.8 mm 7.0°
1
0%
08:00
14°
1027.6 hPa 23.8 mm 7.8°
1
0%
11:00
19°
1027.0 hPa   3.9°
3
0%
14:00
22°
1025.4 hPa 47.6 mm 2.6°
3
0%
20:00
17°
1024.7 hPa 47.6 mm 10.9°
3
0%
 05:38     20:24    Daglengte: 14:46 Donderdag 25 Aug
02:00
14°
1024.3 hPa 47.6 mm 10.9°
1
1%
08:00
14°
1023.4 hPa 47.7 mm 13.5°
1
0%
14:00
24°
1021.4 hPa 47.7 mm 15.6°
3
0%
20:00
21°
1020.2 hPa 47.8 mm 16.2°
2
1%
 05:40     20:21    Daglengte: 14:41 Vrijdag 26 Aug
02:00
16°
1021.5 hPa 47.9 mm 15.6°
1
1%
08:00
18°
1022.2 hPa 47.9 mm 15.4°
1
1%
14:00
24°
1021.9 hPa 47.9 mm 16.8°
3
1%
20:00
22°
1022.5 hPa 48.1 mm 15.3°
1
1%
 05:43     20:18    Daglengte: 14:35 Zaterdag 27 Aug
02:00
17°
1025.5 hPa 48.1 mm 14.7°
1
1%
08:00
15°
1023.1 hPa 0.4 mm 11.0°
0
51%
14:00
22°
1022.6 hPa 0.5 mm 11.2°
0
60%
20:00
17°
1022.3 hPa 0.6 mm 11.6°
0
60%
 05:45     20:15    Daglengte: 14:30 Zondag 28 Aug
02:00
13°
1023.3 hPa 0.5 mm 10.1°
0
53%
08:00
14°
1023.6 hPa 0.2 mm 10.2°
0
51%
14:00
21°
1023.3 hPa 0.2 mm 10.6°
0
56%
20:00
17°
1023.0 hPa 0.3 mm 11.0°
0
50%
 05:48     20:12    Daglengte: 14:24 Maandag 29 Aug
02:00
13°
1023.7 hPa 0.4 mm 10.1°
0
49%
08:00
14°
1023.4 hPa 0.2 mm 10.4°
0
48%
14:00
21°
1022.7 hPa 0.3 mm 10.8°
0
46%
20:00
16°
1022.2 hPa 0.4 mm 10.6°
0
52%
 05:50     20:09    Daglengte: 14:19 Dinsdag 30 Aug
02:00
12°
1022.7 hPa 0.1 mm 9.2°
0
47%
08:00
14°
1022.2 hPa 0.1 mm 9.7°
1
46%
14:00
21°
1021.4 hPa 0.3 mm 9.8°
0
43%
20:00
16°
1020.3 hPa 0.4 mm 10.3°
0
54%
 05:52     20:06    Daglengte: 14:14 Woensdag 31 Aug
02:00
12°
1019.9 hPa 0.6 mm 9.6°
0
53%
08:00
14°
1018.5 hPa 0.7 mm 9.9°
0
56%
14:00
20°
1017.4 hPa 0.7 mm 10.7°
0
57%
20:00
15°
1016.3 hPa 0.8 mm 10.4°
1
55%
 05:55     20:03    Daglengte: 14:08 Donderdag 01 Sep
02:00
12°
1016.1 hPa 0.3 mm 9.5°
0
61%
08:00
13°
1015.4 hPa 0.6 mm 9.2°
0
64%
  CAPE Lifted Index Hail Supercell Tornado SRH 3km CL BTM PRES CL TOP PRES Swiss DWD icon SMHI TS
 05:18     20:48    Daglengte: 15:30 Vandaag
14:00 363 J/kg -1.6 K 0 % 0 % 0 % 0 m²/s² 0 0 -0.76 80
15:00 139 J/kg -0.1 K 0 % 0 % 0 % 0 m²/s² 0 0 1.49 2
16:00 23 J/kg 0.6 K 0 % 0 % 0 % 0 m²/s² 0 0 2.49 2
17:00 88 J/kg 0.0 K 0 % 0 % 0 % 0 m²/s² 0 0 2.1 2
18:00 199 J/kg -0.5 K 0 % 0 % 0 % 0 m²/s² 0 0 1.6 2
19:00 302 J/kg -1.1 K 0 % 0 % 0 % 0 m²/s² 0 0 1.33 2
20:00 200 J/kg -0.8 K 0 % 0 % 0 % 0 m²/s² 0 0 1.87 3
21:00 31 J/kg -0.1 K 0 % 0 % 0 % 0 m²/s² 0 0 2.99 3
22:00 44 J/kg 0.4 K 0 % 0 % 0 % 0 m²/s² 0 0 3.31 3
23:00 3 J/kg 1.4 K 0 % 0 % 0 % 0 m²/s² 0 0 4.22 3
 05:21     20:45    Daglengte: 15:24 Morgen
00:00 0 J/kg 1.3 K 0 % 0 % 0 % 0 m²/s² 0 0 3.82 3
01:00 0 J/kg 1.1 K 0 % 0 % 0 % 0 m²/s² 0 0 3.2 3
02:00 0 J/kg 1.7 K 0 % 0 % 0 % 0 m²/s² 0 0 3.74 3
03:00 0 J/kg 2.0 K 0 % 0 % 0 % 0 m²/s² 0 0 3.83 3
04:00 0 J/kg 2.4 K 0 % 0 % 0 % 0 m²/s² 0 0 4.38 3
05:00 0 J/kg 3.0 K 0 % 0 % 0 % 0 m²/s² 0 0 4.71 3
06:00 0 J/kg 2.8 K 0 % 0 % 0 % 0 m²/s² 0 0 4.45 3
07:00 0 J/kg 2.9 K 0 % 0 % 0 % 0 m²/s² 0 0 4.94 3
08:00 0 J/kg 2.6 K 0 % 0 % 0 % 0 m²/s² 0 0 5.06 3
09:00 0 J/kg 2.2 K 0 % 0 % 0 % 0 m²/s² 0 0 4.63 3
10:00 0 J/kg 1.9 K 0 % 0 % 0 % 0 m²/s² 0 0 4.27 3
11:00 0 J/kg 1.5 K 0 % 0 % 0 % 0 m²/s² 0 0 3.81 3
12:00 0 J/kg 1.7 K 0 % 0 % 0 % 0 m²/s² 0 0 3.74 3
13:00 0 J/kg 1.4 K 0 % 0 % 0 % 0 m²/s² 0 0 2.87 3
14:00 1 J/kg 0.5 K 0 % 0 % 0 % 0 m²/s² 0 0 1.7 3
15:00 3 J/kg -0.2 K 0 % 0 % 0 % 0 m²/s² 0 0 0.97 3
16:00 91 J/kg -0.9 K 0 % 0 % 0 % 0 m²/s² 0 0 0.57 3
17:00 152 J/kg -1.2 K 0 % 0 % 0 % 0 m²/s² 0 0 0.84 3
18:00 172 J/kg -1.6 K 0 % 0 % 0 % 0 m²/s² 0 0 0.5 3
19:00 81 J/kg -2.3 K 0 % 0 % 0 % 0 m²/s² 0 0 -0.26 3
20:00 0 J/kg -2.7 K 0 % 0 % 0 % 0 m²/s² 0 0 -0.72 80
21:00 0 J/kg -3.8 K 0 % 0 % 0 % 0 m²/s² 0 0 -1.91 3
22:00 0 J/kg -3.3 K 0 % 0 % 0 % 0 m²/s² 0 0 -1.53 3
23:00 1 J/kg -2.2 K 0 % 0 % 0 % 0 m²/s² 0 0 -0.43 3
 05:23     20:42    Daglengte: 15:19 Vrijdag 19 Aug
00:00 1 J/kg -0.4 K 0 % 0 % 0 % 0 m²/s² 0 0 1.13 3
01:00 1 J/kg -2.1 K 0 % 0 % 0 % 0 m²/s² 0 0 -0.6 3
02:00 1 J/kg -1.5 K 0 % 0 % 0 % 0 m²/s² 0 0 0.24 3
03:00 1 J/kg -2.0 K 0 % 0 % 0 % 0 m²/s² 0 0 -0.74 3
04:00 2 J/kg -1.7 K 0 % 0 % 0 % 0 m²/s² 0 0 -0.65 3
05:00 2 J/kg -1.2 K 0 % 0 % 0 % 0 m²/s² 0 0 -0.03 3
06:00 1 J/kg -0.9 K 0 % 0 % 0 % 0 m²/s² 0 0 0.6 3
07:00 1 J/kg -1.0 K 0 % 0 % 0 % 0 m²/s² 0 0 0.44 3
08:00 1 J/kg -1.7 K 0 % 0 % 0 % 0 m²/s² 0 0 -0.26 3
09:00 0 J/kg -1.8 K 0 % 0 % 0 % 0 m²/s² 0 0 -0.42 3
10:00 53 J/kg -1.8 K 0 % 0 % 0 % 0 m²/s² 0 0 -1.32 3
11:00 159 J/kg -1.5 K 0 % 0 % 0 % 0 m²/s² 0 0 -1.5 3
12:00 766 J/kg -2.8 K 0 % 0 % 0 % 0 m²/s² 0 0 -2.35 3
13:00 908 J/kg -2.9 K 0 % 0 % 0 % 0 m²/s² 0 0 -2.63 3
14:00 1122 J/kg -3.3 K 0 % 0 % 0 % 0 m²/s² 0 0 -2.82 80
15:00 1302 J/kg -4.2 K 0 % 0 % 0 % 0 m²/s² 0 0 -3.9 80
16:00 751 J/kg -3.7 K 0 % 0 % 0 % 0 m²/s² 0 0 -3.7 80
17:00 567 J/kg -2.7 K 0 % 0 % 0 % 0 m²/s² 0 0 -2.22 3
18:00 234 J/kg -1.6 K 0 % 0 % 0 % 0 m²/s² 0 0 -1.03 3
19:00 198 J/kg -1.5 K 0 % 0 % 0 % 0 m²/s² 0 0 -1.5 3
20:00 447 J/kg -1.8 K 0 % 0 % 0 % 0 m²/s² 0 0 -1.77 80
21:00 479 J/kg -2.0 K 0 % 0 % 0 % 0 m²/s² 0 0 -1.19 3
22:00 505 J/kg -2.3 K 0 % 0 % 0 % 0 m²/s² 0 0 -2 3
23:00 585 J/kg -2.5 K 0 % 0 % 0 % 0 m²/s² 0 0 -1.12 45
 05:26     20:39    Daglengte: 15:13 Zaterdag 20 Aug
00:00 570 J/kg -2.3 K 0 % 0 % 0 % 0 m²/s² 0 0 -0.44 45
01:00 387 J/kg -1.9 K 0 % 0 % 0 % 0 m²/s² 0 0 1.13 45
02:00 160 J/kg -0.6 K 0 % 0 % 0 % 0 m²/s² 0 0 3.48 95
03:00 38 J/kg -0.4 K 0 % 0 % 0 % 0 m²/s² 0 0 3.98 80
04:00 29 J/kg -0.2 K 0 % 0 % 0 % 0 m²/s² 0 0 4.18 3
05:00 43 J/kg -0.5 K 0 % 0 % 0 % 0 m²/s² 0 0 4 80
06:00 38 J/kg -0.9 K 0 % 0 % 0 % 0 m²/s² 0 0 3.72 95
07:00 21 J/kg -0.9 K 0 % 0 % 0 % 0 m²/s² 0 0 4.05 80
08:00 10 J/kg -0.6 K 0 % 0 % 0 % 0 m²/s² 0 0 4.77 3
09:00 13 J/kg -0.9 K 0 % 0 % 0 % 0 m²/s² 0 0 4.77 61
10:00 61 J/kg -1.3 K 0 % 0 % 0 % 0 m²/s² 0 0 4.07 95
11:00 158 J/kg -1.4 K 0 % 0 % 0 % 0 m²/s² 0 0 3.55 61
12:00 340 J/kg -1.9 K 0 % 0 % 0 % 0 m²/s² 0 0 3.32 80
13:00 643 J/kg -3.0 K 0 % 0 % 0 % 0 m²/s² 0 0 1.47 55
Temp Baro Wind Neerslag
  EWN Forecast EWN WRFDA DWD ICON FMI HIRLAM MET Norway GFS
 05:18     20:48    Daglengte: 15:30 Vandaag
14:00 22.5° 1009.9 hPa 3.4 m/s 0.0 mm 24.4° 1010.1 hPa 4.8 m/s 0.0 mm 21.0° 1010.3 hPa 3.2 m/s -0.4 mm 24.0° 1009.9 hPa 2.9 m/s 0.0 mm 25.2° 1009.4 hPa 4.4 m/s
17:00 23.6° 1009.8 hPa 3.3 m/s 0.0 mm 25.2° 1009.7 hPa 4.7 m/s 0.0 mm 23.2° 1009.8 hPa 3.3 m/s 0.1 mm 24.9° 1009.7 hPa 3.1 m/s 0.0 mm 25.4° 1009.5 hPa 4.5 m/s
20:00 21.8° 1011.0 hPa 2.0 m/s 0.0 mm 22.3° 1010.8 hPa 2.5 m/s 0.0 mm 21.1° 1011.2 hPa 1.6 m/s 0.0 mm 21.9° 1011.0 hPa 1.7 m/s 0.0 mm 20.8° 1010.7 hPa 2.8 m/s
23:00 17.5° 1013.0 hPa 1.5 m/s 0.0 mm 17.3° 1012.8 hPa 2.4 m/s 0.0 mm 17.4° 1012.9 hPa 0.9 m/s 0.0 mm 16.8° 1013.4 hPa 1.4 m/s 0.0 mm 16.8° 1012.3 hPa 1.7 m/s
 05:21     20:45    Daglengte: 15:24 Morgen
02:00 15.6° 1014.9 hPa 1.6 m/s 0.0 mm 13.9° 1014.4 hPa 3.1 m/s 0.0 mm 15.7° 1015.5 hPa 2.8 m/s 0.2 mm 15.4° 1015.0 hPa 1.1 m/s 0.0 mm 14.5° 1014.0 hPa 1.6 m/s
05:00 15.4° 1015.8 hPa 1.8 m/s 0.0 mm 12.6° 1015.2 hPa 2.2 m/s 0.0 mm 14.3° 1016.4 hPa 2.4 m/s 0.1 mm 16.0° 1015.9 hPa 1.8 m/s 0.0 mm 12.2° 1015.4 hPa 1.7 m/s
08:00 15.3° 1017.0 hPa 2.6 m/s 0.0 mm 14.5° 1016.6 hPa 2.7 m/s 0.0 mm 13.9° 1017.9 hPa 2.2 m/s 0.0 mm 15.4° 1017.0 hPa 2.5 m/s 0.0 mm 15.5° 1016.4 hPa 2.4 m/s
11:00 17.0° 1017.7 hPa 2.4 m/s 0.0 mm 18.7° 1016.7 hPa 3.0 m/s 0.0 mm 15.6° 1018.4 hPa 2.2 m/s 0.0 mm 16.8° 1017.8 hPa 2.3 m/s 0.0 mm 21.3° 1016.0 hPa 2.2 m/s
14:00 21.4° 1017.0 hPa 2.4 m/s 0.0 mm 22.1° 1015.9 hPa 3.3 m/s 0.0 mm 19.9° 1017.6 hPa 2.4 m/s 0.0 mm 21.7° 1017.1 hPa 1.5 m/s 0.0 mm 25.3° 1015.2 hPa 2.1 m/s
17:00 22.2° 1016.1 hPa 3.4 m/s 0.0 mm 23.3° 1015.4 hPa 4.2 m/s 0.0 mm 20.4° 1016.4 hPa 3.4 m/s 0.0 mm 22.5° 1016.2 hPa 2.8 m/s 0.0 mm 25.2° 1014.7 hPa 2.4 m/s
20:00 19.3° 1015.8 hPa 2.9 m/s 0.0 mm 19.3° 1014.9 hPa 3.5 m/s 0.0 mm 17.8° 1016.3 hPa 2.4 m/s 0.8 mm 19.4° 1015.9 hPa 2.8 m/s 0.0 mm 20.1° 1014.7 hPa 3.0 m/s
23:00 17.3° 1015.7 hPa 2.6 m/s 0.0 mm 16.3° 1015.2 hPa 3.8 m/s 0.0 mm 16.3° 1015.8 hPa 2.4 m/s 0.0 mm 17.5° 1016.3 hPa 2.6 m/s 0.0 mm 15.6° 1015.5 hPa 2.3 m/s
 05:23     20:42    Daglengte: 15:19 Vrijdag 19 Aug
02:00 16.9° 1015.0 hPa 2.2 m/s 0.0 mm 16.2° 1014.3 hPa 3.2 m/s 0.0 mm 17.0° 1015.0 hPa 2.1 m/s 0.0 mm 17.0° 1015.5 hPa 2.2 m/s 0.0 mm 14.7° 1014.8 hPa 1.4 m/s
05:00 16.9° 1014.2 hPa 1.8 m/s 0.0 mm 15.6° 1013.6 hPa 2.1 m/s 0.2 mm 17.3° 1014.1 hPa 2.2 m/s 0.0 mm 17.0° 1014.9 hPa 1.7 m/s 0.0 mm 15.4° 1014.1 hPa 1.1 m/s
08:00 17.7° 1014.5 hPa 1.6 m/s 0.0 mm 16.6° 1012.9 hPa 1.7 m/s 0.2 mm 18.8° 1014.7 hPa 2.4 m/s 0.0 mm 17.7° 1015.2 hPa 1.5 m/s 0.0 mm 17.2° 1014.7 hPa 1.3 m/s
11:00 22.0° 1013.4 hPa 2.9 m/s 0.0 mm 22.1° 1011.4 hPa 3.4 m/s 0.2 mm 22.9° 1013.9 hPa 2.9 m/s 0.0 mm 22.5° 1014.3 hPa 2.1 m/s
14:00 25.1° 1012.4 hPa 3.1 m/s 1.2 mm 25.0° 1009.1 hPa 4.6 m/s 1.9 mm 24.5° 1013.7 hPa 2.4 m/s 0.9 mm 27.3° 1012.9 hPa 3.4 m/s
17:00 24.6° 1011.8 hPa 2.5 m/s 1.7 mm 22.8° 1008.8 hPa 5.7 m/s 7.2 mm 24.4° 1013.1 hPa 1.9 m/s 0.7 mm 24.4° 1011.3 hPa 2.7 m/s
20:00 21.4° 1011.8 hPa 1.3 m/s 2.9 mm 19.7° 1008.3 hPa 1.6 m/s 17.2 mm 21.5° 1013.4 hPa 1.0 m/s 0.4 mm 18.6° 1012.0 hPa 2.6 m/s
23:00 19.7° 1011.9 hPa 1.3 m/s 24.5 mm 19.8° 1008.5 hPa 4.0 m/s 41.4 mm 18.9° 1012.5 hPa 0.9 m/s 0.1 mm 17.4° 1012.1 hPa 1.3 m/s
 05:26     20:39    Daglengte: 15:13 Zaterdag 20 Aug
02:00 19.0° 1011.1 hPa 1.1 m/s 14.8 mm 18.7° 1009.0 hPa 2.6 m/s 41.7 mm 19.0° 1011.6 hPa 1.0 m/s 0.9 mm 17.4° 1011.7 hPa 1.5 m/s
05:00 18.1° 1010.1 hPa 1.3 m/s 10.6 mm 18.1° 1009.4 hPa 1.3 m/s 41.8 mm 18.4° 1010.1 hPa 1.4 m/s 2.9 mm 17.5° 1011.6 hPa 1.4 m/s
08:00 18.7° 1009.0 hPa 1.3 m/s 15.2 mm 18.1° 1009.8 hPa 2.0 m/s 42.1 mm 18.9° 1008.8 hPa 1.1 m/s 1.8 mm 18.7° 1011.7 hPa 1.0 m/s
11:00 18.8° 1007.3 hPa 3.0 m/s 18.5 mm 19.5° 1009.6 hPa 0.5 m/s 42.3 mm 18.6° 1006.7 hPa 3.6 m/s 6.6 mm 21.5° 1011.0 hPa 1.0 m/s
14:00 20.4° 1005.8 hPa 3.2 m/s 16.7 mm 23.3° 1008.8 hPa 1.3 m/s 42.3 mm 19.7° 1005.1 hPa 3.7 m/s 3.9 mm 19.6° 1010.5 hPa 0.8 m/s
17:00 18.3° 1009.7 hPa 0.4 m/s 19.5 mm 18.3° 1009.7 hPa 0.4 m/s 19.5 mm
20:00 17.1° 1010.0 hPa 1.4 m/s 22.5 mm 17.1° 1010.0 hPa 1.4 m/s 22.5 mm
23:00 14.6° 1009.7 hPa 1.6 m/s 22.5 mm 14.6° 1009.7 hPa 1.6 m/s 22.5 mm
 05:28     20:36    Daglengte: 15:08 Zondag 21 Aug
02:00 14.0° 1009.8 hPa 1.4 m/s 22.5 mm 14.0° 1009.8 hPa 1.4 m/s 22.5 mm
05:00 12.0° 1009.2 hPa 1.6 m/s 22.5 mm 12.0° 1009.3 hPa 1.6 m/s 22.5 mm
08:00 14.4° 1009.4 hPa 2.3 m/s 22.5 mm 14.4° 1009.4 hPa 2.3 m/s 22.5 mm
11:00 19.6° 1008.5 hPa 3.6 m/s 22.5 mm 19.6° 1008.5 hPa 3.6 m/s 22.5 mm
14:00 22.2° 1008.4 hPa 4.7 m/s 22.5 mm 22.2° 1008.4 hPa 4.7 m/s 22.5 mm
17:00 21.1° 1008.5 hPa 4.0 m/s 22.5 mm 21.1° 1008.5 hPa 4.0 m/s 22.5 mm
20:00 18.0° 1009.0 hPa 3.8 m/s 22.5 mm 18.0° 1009.0 hPa 3.8 m/s 22.5 mm
23:00 13.3° 1009.3 hPa 2.0 m/s 22.5 mm 13.3° 1009.3 hPa 2.0 m/s 22.5 mm
 05:31     20:33    Daglengte: 15:02 Maandag 22 Aug
02:00 13.1° 1009.3 hPa 1.7 m/s 22.5 mm 13.1° 1009.3 hPa 1.7 m/s 22.5 mm
05:00 13.0° 1009.1 hPa 1.9 m/s 22.5 mm 13.0° 1009.1 hPa 1.8 m/s 22.5 mm
08:00 14.7° 1009.4 hPa 2.7 m/s 22.5 mm 14.7° 1009.4 hPa 2.7 m/s 22.5 mm
11:00 17.1° 1009.0 hPa 4.8 m/s 23.3 mm 17.1° 1009.0 hPa 4.8 m/s 23.3 mm
14:00 20.3° 1008.7 hPa 5.3 m/s 23.5 mm 20.3° 1008.7 hPa 5.3 m/s 23.5 mm
17:00 17.3° 1009.9 hPa 4.6 m/s 23.6 mm 17.3° 1009.9 hPa 4.6 m/s 23.6 mm
20:00 14.8° 1011.1 hPa 4.1 m/s 23.8 mm 14.8° 1011.1 hPa 4.1 m/s 23.8 mm
23:00 11.9° 1013.2 hPa 2.8 m/s 23.8 mm 11.9° 1013.2 hPa 2.8 m/s 23.8 mm
 05:33     20:30    Daglengte: 14:57 Dinsdag 23 Aug
02:00 10.2° 1015.6 hPa 1.8 m/s 23.8 mm 10.2° 1015.6 hPa 1.8 m/s 23.8 mm
05:00 9.1° 1018.3 hPa 1.0 m/s 23.8 mm 9.1° 1018.3 hPa 1.0 m/s 23.8 mm
08:00 12.8° 1021.0 hPa 0.8 m/s 23.8 mm 12.8° 1021.0 hPa 0.8 m/s 23.8 mm
11:00 18.8° 1022.4 hPa 1.0 m/s 23.8 mm 18.8° 1022.4 hPa 1.0 m/s 23.8 mm
14:00 21.6° 1023.0 hPa 1.9 m/s 23.8 mm 21.6° 1023.0 hPa 1.9 m/s 23.8 mm
17:00 22.0° 1023.4 hPa 2.6 m/s 23.8 mm 22.0° 1023.4 hPa 2.6 m/s 23.8 mm
20:00 16.0° 1024.8 hPa 1.4 m/s 23.8 mm 16.0° 1024.8 hPa 1.4 m/s 23.8 mm
23:00 12.1° 1026.5 hPa 0.5 m/s 23.8 mm 12.1° 1026.5 hPa 0.5 m/s 23.8 mm
 05:35     20:27    Daglengte: 14:52 Woensdag 24 Aug
02:00 10.3° 1027.5 hPa 0.8 m/s 23.8 mm 10.3° 1027.5 hPa 0.8 m/s 23.8 mm
05:00 9.3° 1027.5 hPa 0.9 m/s 23.8 mm 9.3° 1027.5 hPa 0.9 m/s 23.8 mm
08:00 13.5° 1027.6 hPa 1.3 m/s 23.8 mm 13.5° 1027.6 hPa 1.3 m/s 23.8 mm
11:00 19.0° 1027.0 hPa 2.5 m/s 23.8 mm 19.0° 1027.0 hPa 2.5 m/s 23.8 mm
14:00 22.0° 1025.4 hPa 2.9 m/s 23.8 mm 22.0° 1025.4 hPa 2.9 m/s 23.8 mm
20:00 16.5° 1024.7 hPa 2.6 m/s 23.8 mm 16.5° 1024.7 hPa 2.6 m/s 23.8 mm
 05:38     20:24    Daglengte: 14:46 Donderdag 25 Aug
02:00 14.3° 1024.3 hPa 1.2 m/s 23.8 mm 14.3° 1024.3 hPa 1.2 m/s 23.8 mm
08:00 14.3° 1023.4 hPa 1.4 m/s 23.9 mm 14.3° 1023.4 hPa 1.4 m/s 23.9 mm
14:00 23.7° 1021.4 hPa 2.6 m/s 23.9 mm 23.7° 1021.4 hPa 2.6 m/s 23.9 mm
20:00 21.4° 1020.2 hPa 2.0 m/s 23.9 mm 21.4° 1020.2 hPa 2.0 m/s 23.9 mm
 05:40     20:21    Daglengte: 14:41 Vrijdag 26 Aug
02:00 16.3° 1021.5 hPa 0.9 m/s 24.0 mm 16.3° 1021.5 hPa 0.9 m/s 24.0 mm
08:00 18.5° 1022.2 hPa 0.9 m/s 24.0 mm 18.5° 1022.2 hPa 0.9 m/s 24.0 mm
14:00 23.7° 1021.9 hPa 2.6 m/s 24.0 mm 23.7° 1021.9 hPa 2.6 m/s 24.0 mm
20:00 22.1° 1022.5 hPa 1.1 m/s 24.1 mm 22.1° 1022.5 hPa 1.1 m/s 24.1 mm
 05:43     20:18    Daglengte: 14:35 Zaterdag 27 Aug
02:00 17.1° 1025.5 hPa 0.6 m/s 24.1 mm 17.1° 1025.5 hPa 0.6 m/s 24.1 mm
08:00 14.8° 1023.1 hPa 0.5 m/s 0.4 mm
14:00 21.8° 1022.6 hPa 0.4 m/s 0.5 mm
20:00 17.1° 1022.3 hPa 0.2 m/s 0.6 mm
 05:45     20:15    Daglengte: 14:30 Zondag 28 Aug
02:00 12.9° 1023.3 hPa 0.3 m/s 0.5 mm
08:00 14.4° 1023.6 hPa 0.5 m/s 0.2 mm
14:00 21.4° 1023.3 hPa 0.5 m/s 0.2 mm
20:00 16.7° 1023.0 hPa 0.1 m/s 0.3 mm
 05:48     20:12    Daglengte: 14:24 Maandag 29 Aug
02:00 12.9° 1023.7 hPa 0.3 m/s 0.4 mm
08:00 14.4° 1023.4 hPa 0.4 m/s 0.2 mm
14:00 21.3° 1022.7 hPa 0.3 m/s 0.3 mm
20:00 16.2° 1022.2 hPa 0.2 m/s 0.4 mm
 05:50     20:09    Daglengte: 14:19 Dinsdag 30 Aug
02:00 12.4° 1022.7 hPa 0.4 m/s 0.1 mm
08:00 14.0° 1022.2 hPa 0.7 m/s 0.1 mm
14:00 20.9° 1021.4 hPa 0.3 m/s 0.3 mm
20:00 16.1° 1020.3 hPa 0.1 m/s 0.4 mm
 05:52     20:06    Daglengte: 14:14 Woensdag 31 Aug
02:00 12.4° 1019.9 hPa 0.1 m/s 0.6 mm
08:00 14.0° 1018.5 hPa 0.1 m/s 0.7 mm
14:00 19.6° 1017.4 hPa 0.4 m/s 0.7 mm
20:00 15.4° 1016.3 hPa 0.5 m/s 0.8 mm
 05:55     20:03    Daglengte: 14:08 Donderdag 01 Sep
02:00 11.8° 1016.1 hPa 0.2 m/s 0.3 mm
08:00 12.7° 1015.4 hPa 0.2 m/s 0.6 mm
FMI Hirlam - 7.5 km EWN WRFDA - 12 km DWD ICON - 7 km GFS - 25 km Basiskaart






























































Updatetijd (Europe/Amsterdam) Resolutie Lengte Stap
FMI Hirlam 07:15, 13:15, 19:15, 01:15 7.5 km 49h 1h
EWN WRFDA 10:15, 16:15, 22:15, 04:15 12 km 73h 1h
DWD ICON 11:45, 17:45, 23:45, 05:45 7 km 75h 1h
GFS 08:15, 14:15, 20:15, 02:15 25 km 237h 3h
30+ mm
25-30 mm
20-25 mm
15-20 mm
10-15 mm
6-10 mm
4-6 mm
2-4 mm
1-2 mm
0.5-1 mm
0.2-0.5 mm
0.1-0.2 mm
30+ mm
25-30 mm
20-25 mm
15-20 mm
10-15 mm
6-10 mm
4-6 mm
2-4 mm
1-2 mm
0.5-1 mm
0.2-0.5 mm
0.1-0.2 mm
Sneeuwval
Natte sneeuw
Hagel
Vorst
30+ mm
25-30 mm
20-25 mm
15-20 mm
10-15 mm
6-10 mm
4-6 mm
2-4 mm
1-2 mm
0.5-1 mm
0.2-0.5 mm
0.1-0.2 mm
Sneeuwval
Natte sneeuw
Hagel
Vorst
Onweer
50 mm
40 mm
30 mm
26 mm
22 mm
18 mm
14 mm
10 mm
9 mm
8 mm
7 mm
6 mm
5 mm
4.5 mm
4 mm
3.5 mm
3 mm
2.5 mm
2 mm
1.5 mm
1 mm
0.8 mm
0.6 mm
0.4 mm
0.2 mm
0.05 mm
35°
30°
25°
20°
15°
10°
-5°
-10°
-15°
-20°
-25°
-30°
-35°
33> m/s
29 m/s
25 m/s
21 m/s
17 m/s
14 m/s
11 m/s
8 m/s
5 m/s
3 m/s
0 m/s
2600 J/kg
2400 J/kg
2200 J/kg
2000 J/kg
1800 J/kg
1600 J/kg
1400 J/kg
1200 J/kg
1000 J/kg
800 J/kg
600 J/kg
400 J/kg
200 J/kg
70 dBZ
65 dBZ
60 dBZ
55 dBZ
50 dBZ
45 dBZ
40 dBZ
35 dBZ
30 dBZ
25 dBZ
20 dBZ
15 dBZ
10 dBZ
5 dBZ
-1 K
-2 K
-3 K
-4 K
-5 K
-6 K
-7 K
-8 K
-9 K
950 m²/s²
900 m²/s²
850 m²/s²
800 m²/s²
750 m²/s²
700 m²/s²
650 m²/s²
600 m²/s²
550 m²/s²
500 m²/s²
450 m²/s²
400 m²/s²
350 m²/s²
300 m²/s²
250 m²/s²
200 m²/s²
150 m²/s²
100 m²/s²
46 m/s
44 m/s
42 m/s
40 m/s
38 m/s
36 m/s
34 m/s
32 m/s
30 m/s
28 m/s
26 m/s
24 m/s
22 m/s
20 m/s
16 m/s
12 m/s
8 m/s
4 m/s
30 m/s
28 m/s
26 m/s
24 m/s
22 m/s
20 m/s
18 m/s
16 m/s
14 m/s
12 m/s
10 m/s
8 m/s
6 m/s
4 m/s
2 m/s
3.0
2.8
2.6
2.4
2.2
2.0
1.8
1.6
1.4
1.2
1.0
0.8
0.6
0.4
0.2
15
14
13
12
11
10
9
8
7
6
5
4
3
2
1
90%
80%
70%
60%
50%
40%
30%
20%
10%
42
40
38
36
34
32
30
28
26
24
22
20
18
16
14
12
90+ cm
80-90 cm
70-80 cm
60-70 cm
50-60 cm
40-50 cm
30-40 cm
20-30 cm
10-20 cm
1-10 cm
Sneeuwval
Natte sneeuw
Regen
>120 mm
115 mm
110 mm
105 mm
100 mm
95 mm
90 mm
85 mm
80 mm
75 mm
70 mm
65 mm
60 mm
55 mm
50 mm
45 mm
45 mm
40 mm
35 mm
30 mm
25 mm
20 mm
15 mm
10 mm
5 mm
0.1 mm
960 hPa
880 hPa
800 hPa
720 hPa
640 hPa
560 hPa
584 gpdm
568 gpdm
552 gpdm
536 gpdm
520 gpdm
504 gpdm
488 gpdm
Extreem zwaar Noodweer Kans op onweer
15% 15% 5% 50% 15%

Dag